Wind_Speed
39 33 42 41 35 32 31 29 28 23 24 23 31 33 34 33 37 36 32 40 41 38 25 18 17 20 26 26 41 44 59 69 76 69 69 65 66 66 64 59 62 64 60 68
39 34 52 43 38 34 34 29 25 22 22 22 31 35 36 35 32 38 31 38 41 40 29 21 18 14 17 22 30 45 52 58 71 72 72 74 72 71 74 70 70 70 72 66
46 46 50 45 40 40 40 34 29 22 21 24 29 34 34 35 31 36 30 34 37 37 29 19 24 17 19 20 24 36 38 48 64 71 69 74 77 74 80 82 80 78 77 78
42 46 52 49 47 44 43 39 28 25 25 27 28 34 36 35 33 31 33 31 36 35 29 18 18 15 18 16 18 25 34 43 52 68 72 70 76 74 78 87 85 82 81 75
45 53 49 45 50 46 45 43 34 31 28 27 33 31 35 36 32 27 33 29 34 33 29 19 15 17 15 13 12 19 27 32 45 59 70 69 70 66 64 72 82 83 81 83
51 55 50 45 52 48 49 46 40 34 30 26 33 28 36 41 37 24 30 28 29 30 30 24 15 17 19 19 16 18 21 25 29 36 41 49 55 48 52 53 60 62 59 56
54 55 52 51 52 51 51 51 47 38 35 32 34 29 38 38 39 26 27 29 26 29 27 23 19 13 21 23 21 21 20 24 24 26 27 29 31 33 39 43 47 53 53 46
53 54 54 55 57 57 57 53 47 43 40 35 29 31 39 33 37 29 25 27 27 25 29 26 22 17 17 21 24 26 26 24 25 22 21 21 20 24 26 27 28 33 36 37
60 60 57 54 58 58 55 54 53 47 39 34 29 34 41 39 37 30 24 26 28 28 28 28 23 21 18 21 25 29 30 28 29 30 29 26 29 30 30 31 33 36 40 43
57 57 61 64 64 63 60 59 56 49 41 39 34 37 43 38 36 33 27 28 28 30 30 30 24 22 21 19 23 28 27 25 26 30 30 33 31 31 33 31 29 29 30 33
68 67 67 67 65 65 63 63 60 54 47 38 41 39 45 40 38 36 28 28 32 32 31 31 27 24 21 22 18 23 29 25 27 30 33 36 38 38 37 38 36 32 29 24
74 68 68 71 71 71 70 65 62 56 50 45 43 41 46 41 40 39 34 34 31 35 31 32 30 26 20 20 25 21 22 29 30 32 34 35 37 38 37 39 40 37 35 34
78 76 75 74 73 74 73 72 70 64 58 50 46 42 52 46 43 40 41 36 34 35 34 32 31 29 27 20 21 22 22 24 32 33 37 37 39 38 38 37 36 40 37 42
84 85 82 79 75 76 71 67 64 64 60 54 46 50 52 54 45 44 41 37 35 35 37 35 32 27 28 27 23 21 19 19 27 35 38 40 37 37 37 37 39 42 42 44
88 84 84 88 85 83 80 75 75 68 64 64 57 56 54 58 52 44 44 38 39 35 38 37 34 30 29 28 27 26 24 19 18 28 41 44 41 37 36 39 39 40 44 44
92 91 89 88 88 86 85 78 82 76 69 61 58 53 52 59 57 49 46 44 40 40 40 41 41 35 32 30 30 31 27 26 23 19 19 36 44 43 42 42 46 45 48 49
90 88 87 82 85 85 77 82 80 72 65 59 55 58 57 57 60 54 51 47 44 42 42 45 44 43 40 33 31 32 31 29 28 28 26 21 22 32 41 44 46 50 51 52
86 90 92 88 89 89 79 83 82 78 68 63 57 56 58 59 62 59 57 53 48 44 48 48 50 46 42 39 38 36 35 32 31 30 30 30 28 28 31 34 38 42 43 43
79 80 80 79 82 77 75 80 83 83 72 70 67 64 58 60 62 61 60 56 53 48 51 51 47 52 53 49 45 40 42 38 35 35 35 33 34 33 33 34 36 38 41 43
72 72 74 73 74 73 73 81 82 79 66 77 71 68 66 63 59 63 68 61 60 55 54 55 54 49 52 56 54 45 40 42 43 41 40 40 41 41 42 43 43 45 47 49
71 70 70 70 73 66 68 76 79 74 68 76 75 70 69 68 66 69 71 66 64 57 58 54 52 49 50 55 59 60 55 52 49 45 45 46 46 48 48 50 51 52 54 55
70 70 69 70 69 65 70 70 73 72 72 75 75 71 69 71 73 73 71 70 68 63 62 58 55 56 55 56 61 63 63 60 60 55 54 52 50 50 52 53 55 56 58 60
65 68 70 68 69 69 68 70 71 72 69 71 72 73 73 71 73 73 72 72 71 68 63 64 62 62 58 59 62 67 68 67 59 61 60 58 56 57 59 62 63 62 62 64
64 66 64 63 65 66 66 70 74 75 70 67 65 70 76 73 70 71 71 73 72 70 72 70 67 60 59 62 64 69 70 70 70 67 62 63 65 66 66 65 66 66 66 66
61 62 63 59 64 61 65 68 72 73 70 62 67 72 74 74 74 74 71 70 70 70 71 71 67 64 65 65 62 67 71 72 70 69 69 67 68 70 71 71 71 72 72 74
55 54 55 54 57 60 66 66 66 72 72 70 67 73 76 76 77 73 71 74 74 73 71 72 70 69 69 68 69 68 71 74 73 71 72 74 76 77 78 78 77 78 77 77
Wind_Direction
243 255 258 258 267 272 275 277 277 292 298 305 316 319 329 341 337 333 337 334 331 328 315 297 278 270 247 260 246 243 239 234 236 238 234 226 230 226 229 232 237 238 245 252
245 252 251 257 263 266 271 273 276 290 292 301 315 320 326 335 339 337 328 337 335 332 321 316 309 288 263 262 243 237 238 236 233 237 237 235 233 233 233 234 238 241 243 254
245 249 255 256 259 260 266 268 271 290 291 294 305 313 320 331 341 326 326 338 334 332 317 310 307 282 271 261 237 232 224 230 231 235 239 241 240 242 238 241 245 242 248 250
241 249 254 252 256 259 266 268 273 277 285 291 298 308 313 322 331 329 323 330 330 333 325 312 293 270 271 264 238 230 228 226 228 232 235 242 243 250 249 243 249 251 254 258
234 246 252 255 252 263 260 263 275 278 276 284 294 303 307 318 328 326 327 322 330 331 335 313 306 262 246 263 268 243 233 237 232 231 233 240 241 245 249 247 248 252 255 259
233 243 248 252 252 257 258 264 270 280 284 293 289 301 302 309 317 318 316 316 323 328 338 327 314 269 238 237 252 256 244 233 243 239 238 242 240 242 249 248 252 254 256 260
237 241 244 246 251 256 258 261 268 274 283 277 288 292 296 302 307 315 321 314 316 327 334 334 328 285 253 237 239 248 248 239 231 238 242 243 242 245 248 252 253 252 256 257
246 250 245 248 247 249 255 261 268 273 282 286 286 285 291 295 304 310 319 310 306 319 325 332 335 326 285 254 253 250 248 247 234 229 230 229 229 234 240 241 245 247 249 254
242 240 243 247 248 251 255 261 263 272 281 279 275 278 282 290 297 305 309 303 305 309 314 322 334 343 312 282 267 258 256 251 239 233 226 234 230 239 245 251 255 251 253 257
246 244 249 252 253 255 256 259 263 267 273 271 268 271 277 282 286 294 298 302 295 296 306 311 324 329 334 309 271 258 258 259 247 243 235 238 245 245 253 253 247 249 258 264
240 243 247 250 251 252 251 257 263 265 265 268 269 273 272 277 280 282 282 296 298 287 294 304 310 322 329 333 315 273 248 249 252 250 250 248 246 252 250 246 241 243 236 246
244 246 248 251 252 253 255 256 260 264 262 265 261 270 269 271 271 273 276 282 295 292 283 294 301 302 315 332 330 312 272 245 241 244 246 247 251 252 256 263 259 250 246 251
243 245 249 250 253 255 255 258 263 265 264 267 259 264 262 261 259 264 272 277 285 295 276 283 292 296 301 322 326 323 305 274 252 246 249 251 254 259 259 253 249 250 252 259
246 248 249 251 258 258 259 261 263 263 264 265 261 254 254 257 257 261 264 271 272 289 278 273 277 287 293 300 309 318 320 304 266 256 256 257 255 258 251 251 253 251 254 260
246 249 253 253 256 261 263 264 268 266 260 264 259 255 249 253 267 261 265 267 263 276 278 266 263 274 281 289 296 302 313 314 304 268 258 260 266 264 250 255 262 261 257 265
246 250 252 255 258 260 261 262 263 264 263 262 255 253 252 251 260 259 259 259 259 268 273 263 259 264 269 275 283 290 300 308 311 309 293 261 259 262 262 260 266 266 271 274
249 250 249 249 252 253 254 259 259 258 258 255 250 246 245 247 254 255 255 255 259 266 265 259 259 256 260 265 271 280 288 294 302 309 309 304 293 270 265 265 265 269 273 276
250 249 248 249 249 250 250 251 253 253 252 249 246 241 246 246 245 247 251 251 254 253 260 260 255 258 261 263 266 270 271 277 286 292 295 299 298 294 292 290 287 285 286 287
249 249 250 247 247 247 246 246 246 248 251 247 246 245 244 248 248 250 248 249 253 252 251 258 260 261 261 261 261 264 268 268 271 276 281 284 286 287 287 287 286 284 286 289
245 245 245 247 247 245 244 245 247 247 244 250 246 244 244 243 242 248 250 251 249 252 250 257 261 262 262 259 260 259 257 263 266 267 270 270 272 277 282 284 285 286 287 289
242 244 245 244 245 244 241 244 247 245 240 245 248 245 244 244 243 243 247 251 253 255 254 259 258 261 263 261 261 261 258 260 262 266 268 268 271 271 274 280 282 283 285 288
242 243 242 241 241 240 242 240 243 241 237 239 243 244 244 243 244 245 246 249 251 251 251 255 255 261 262 262 261 259 261 262 264 267 267 269 273 275 276 280 282 282 283 284
241 239 240 241 242 239 236 240 239 241 240 237 237 239 240 241 238 241 244 246 250 255 253 254 254 262 263 259 260 262 262 260 263 265 268 270 270 278 280 280 282 284 287 289
241 244 243 241 242 240 239 238 239 240 237 237 236 236 238 239 242 242 241 246 249 251 255 253 259 263 260 258 257 260 264 267 269 266 266 270 272 279 282 284 283 283 287 292
240 242 243 242 241 240 238 236 235 239 241 234 235 238 236 237 238 241 244 246 247 248 250 253 255 256 256 258 260 257 260 262 263 264 267 269 274 278 278 279 281 282 283 288
243 241 240 238 239 240 239 237 235 236 239 239 235 239 245 240 239 238 236 241 243 247 248 250 251 252 253 256 259 259 261 261 264 265 266 271 273 274 275 277 280 282 283 287
Height
10619 10628 10623 10623 10630 10631 10630 10631 10631 10633 10633 10633 10633 10629 10628 10626 10621 10615 10608 10601 10596 10589 10585 10583 10581 10581 10583 10585 10586 10589 10595 10602 10608 10613 10620 10626 10629 10633 10635 10640 10645 10648 10650 10650
10616 10622 10604 10616 10622 10624 10622 10624 10623 10625 10627 10627 10626 10623 10621 10621 10617 10613 10608 10599 10593 10586 10580 10576 10575 10576 10578 10580 10581 10584 10586 10590 10596 10603 10609 10615 10620 10626 10629 10632 10636 10639 10642 10643
10605 10605 10601 10607 10613 10615 10615 10616 10617 10619 10620 10621 10621 10619 10617 10615 10613 10609 10603 10598 10592 10586 10578 10574 10571 10571 10573 10574 10575 10577 10577 10581 10587 10595 10599 10603 10608 10611 10618 10620 10622 10627 10630 10632
10594 10594 10593 10599 10602 10605 10607 10608 10611 10612 10613 10613 10616 10616 10612 10608 10609 10606 10600 10594 10590 10585 10578 10572 10569 10567 10568 10568 10570 10572 10574 10576 10580 10585 10590 10593 10598 10601 10605 10609 10612 10615 10619 10618
10583 10577 10583 10592 10589 10597 10596 10600 10604 10605 10606 10607 10606 10610 10607 10604 10603 10601 10598 10592 10588 10582 10576 10571 10567 10566 10565 10565 10566 10567 10569 10571 10574 10577 10582 10588 10591 10593 10593 10597 10601 10604 10606 10609
10568 10568 10575 10581 10577 10586 10585 10590 10595 10598 10599 10601 10599 10604 10598 10598 10597 10597 10594 10589 10585 10580 10574 10568 10565 10563 10563 10564 10564 10564 10565 10567 10570 10572 10576 10580 10586 10586 10587 10589 10590 10592 10596 10597
10554 10556 10561 10567 10569 10573 10576 10579 10587 10592 10591 10593 10593 10596 10594 10592 10590 10590 10589 10585 10582 10578 10574 10568 10562 10560 10561 10561 10561 10561 10561 10562 10565 10568 10571 10575 10577 10578 10578 10580 10581 10585 10588 10592
10541 10544 10549 10555 10558 10559 10565 10570 10579 10581 10584 10586 10586 10589 10586 10586 10583 10583 10581 10579 10576 10575 10572 10567 10561 10557 10555 10557 10557 10558 10559 10559 10560 10563 10566 10568 10569 10570 10570 10571 10572 10574 10579 10580
10528 10536 10536 10543 10544 10548 10557 10562 10563 10571 10577 10579 10580 10581 10578 10581 10576 10576 10576 10574 10571 10569 10569 10564 10559 10554 10552 10550 10550 10550 10551 10554 10556 10558 10559 10560 10560 10561 10562 10563 10564 10565 10566 10567
10517 10524 10526 10528 10534 10540 10546 10549 10554 10562 10568 10571 10574 10573 10569 10573 10572 10569 10569 10568 10567 10566 10563 10561 10557 10553 10550 10547 10544 10543 10543 10545 10548 10551 10552 10552 10552 10552 10553 10554 10554 10555 10556 10558
10501 10510 10514 10517 10525 10526 10532 10537 10542 10547 10555 10561 10566 10566 10559 10563 10566 10563 10562 10562 10561 10559 10559 10556 10554 10552 10547 10543 10540 10538 10538 10539 10540 10541 10544 10543 10541 10541 10541 10539 10540 10544 10543 10544
10487 10497 10503 10505 10506 10513 10517 10523 10526 10534 10542 10549 10555 10559 10549 10554 10555 10556 10555 10553 10554 10552 10551 10550 10549 10549 10546 10541 10536 10534 10532 10534 10533 10535 10536 10536 10535 10534 10537 10537 10538 10539 10538 10539
10472 10479 10489 10492 10491 10495 10503 10507 10511 10518 10527 10538 10542 10551 10534 10542 10545 10548 10546 10545 10543 10544 10543 10542 10541 10540 10539 10537 10535 10531 10527 10526 10527 10530 10529 10528 10528 10531 10531 10531 10533 10533 10533 10531
10451 10460 10469 10476 10473 10475 10488 10493 10499 10504 10514 10519 10531 10532 10528 10526 10533 10536 10538 10537 10537 10536 10534 10533 10533 10533 10532 10531 10529 10528 10525 10521 10519 10518 10517 10517 10520 10522 10525 10525 10526 10525 10523 10521
10432 10442 10448 10455 10458 10458 10469 10480 10482 10487 10494 10499 10511 10515 10517 10514 10520 10526 10527 10530 10529 10528 10528 10526 10525 10525 10525 10524 10523 10521 10520 10518 10515 10512 10511 10510 10510 10511 10515 10516 10516 10515 10514 10513
10414 10427 10430 10434 10441 10443 10450 10459 10460 10468 10476 10486 10494 10503 10503 10503 10506 10514 10516 10517 10520 10519 10518 10518 10518 10517 10516 10517 10516 10514 10512 10510 10509 10508 10505 10504 10503 10504 10504 10506 10506 10505 10505 10505
10393 10402 10406 10420 10420 10422 10439 10435 10439 10451 10459 10468 10478 10485 10487 10492 10492 10498 10501 10506 10508 10508 10508 10508 10509 10508 10506 10507 10508 10507 10504 10501 10502 10499 10498 10497 10497 10497 10495 10496 10496 10496 10495 10494
10371 10375 10383 10398 10396 10404 10427 10418 10423 10430 10443 10452 10461 10468 10472 10475 10475 10480 10486 10492 10495 10497 10496 10496 10497 10497 10498 10499 10499 10498 10497 10494 10492 10493 10493 10491 10489 10488 10488 10488 10487 10485 10483 10482
10346 10353 10361 10368 10373 10391 10402 10400 10399 10406 10428 10434 10441 10450 10456 10461 10465 10470 10471 10477 10481 10482 10483 10482 10485 10485 10486 10487 10488 10488 10488 10487 10485 10484 10484 10483 10482 10481 10480 10479 10477 10476 10474 10471
10326 10332 10337 10349 10353 10366 10384 10376 10379 10392 10419 10404 10419 10431 10437 10441 10453 10458 10451 10460 10463 10465 10468 10470 10472 10473 10473 10474 10474 10476 10477 10477 10476 10475 10474 10473 10472 10472 10471 10470 10468 10465 10462 10460
10304 10311 10320 10326 10330 10354 10359 10358 10363 10377 10396 10389 10397 10412 10420 10427 10436 10434 10438 10444 10447 10453 10454 10454 10457 10459 10459 10460 10460 10459 10462 10463 10463 10464 10464 10463 10462 10460 10459 10457 10455 10453 10449 10446
10289 10296 10303 10309 10318 10333 10334 10341 10344 10351 10363 10373 10378 10389 10398 10404 10412 10420 10423 10426 10429 10435 10437 10438 10442 10444 10444 10445 10446 10445 10444 10446 10449 10449 10449 10450 10448 10446 10444 10442 10440 10436 10433 10430
10272 10278 10284 10294 10303 10309 10316 10320 10326 10332 10343 10352 10361 10366 10374 10380 10386 10397 10404 10409 10413 10418 10421 10422 10424 10429 10430 10430 10430 10431 10432 10432 10432 10433 10433 10433 10432 10430 10428 10424 10421 10418 10414 10410
10255 10259 10271 10279 10284 10290 10302 10305 10306 10310 10322 10333 10343 10347 10351 10363 10372 10377 10384 10390 10397 10403 10402 10406 10410 10414 10415 10417 10417 10417 10416 10417 10419 10417 10415 10414 10413 10411 10409 10405 10402 10399 10395 10392
10240 10247 10254 10267 10267 10277 10279 10280 10288 10299 10308 10319 10325 10327 10334 10340 10347 10358 10368 10375 10379 10383 10386 10390 10395 10396 10397 10399 10401 10401 10400 10400 10401 10401 10399 10397 10395 10393 10390 10387 10384 10382 10378 10374
10228 10235 10241 10250 10255 10257 10255 10263 10277 10281 10289 10296 10304 10310 10313 10320 10327 10338 10343 10348 10356 10363 10367 10371 10376 10378 10380 10383 10382 10383 10383 10383 10384 10385 10383 10380 10377 10374 10371 10368 10365 10363 10358 10353